TimeEDT,TemperatureF,Dew PointF,Humidity,Sea Level PressureIn,VisibilityMPH,Wind Direction,Wind SpeedMPH,Gust SpeedMPH,PrecipitationIn,Events,Conditions,WindDirDegrees,DateUTC
12:52 AM,35.1,30.9,85,29.97,10.0,WSW,11.5,-,N/A,,Overcast,250,2013-10-24 04:52:00
1:52 AM,36.0,30.0,79,29.97,10.0,West,10.4,-,N/A,,Overcast,260,2013-10-24 05:52:00
2:52 AM,34.0,30.0,85,29.98,10.0,West,8.1,-,N/A,,Clear,260,2013-10-24 06:52:00
3:52 AM,33.1,30.0,89,29.98,10.0,WSW,6.9,-,N/A,,Clear,240,2013-10-24 07:52:00
4:52 AM,33.1,30.0,89,29.98,10.0,SW,6.9,-,N/A,,Overcast,230,2013-10-24 08:52:00
5:52 AM,34.0,30.0,85,29.99,10.0,WSW,8.1,-,N/A,,Overcast,250,2013-10-24 09:52:00
6:52 AM,34.0,30.9,89,30.01,10.0,WSW,6.9,-,N/A,,Overcast,250,2013-10-24 10:52:00
7:11 AM,33.8,30.2,87,29.99,10.0,West,4.6,-,N/A,,Overcast,260,2013-10-24 11:11:00
7:52 AM,35.1,32.0,89,30.01,10.0,WSW,5.8,-,N/A,,Overcast,250,2013-10-24 11:52:00
8:21 AM,35.6,32.0,87,30.00,10.0,West,6.9,-,N/A,,Overcast,270,2013-10-24 12:21:00
8:52 AM,36.0,32.0,86,30.03,10.0,West,10.4,-,N/A,,Overcast,260,2013-10-24 12:52:00
9:43 AM,37.4,33.8,87,30.02,10.0,West,10.4,-,N/A,,Overcast,260,2013-10-24 13:43:00
9:52 AM,37.0,33.1,86,30.05,10.0,West,10.4,-,N/A,,Overcast,260,2013-10-24 13:52:00
10:28 AM,37.4,33.8,87,30.04,-9999.0,West,10.4,-,N/A,,Overcast,260,2013-10-24 14:28:00
10:52 AM,37.9,33.1,83,30.06,10.0,West,10.4,-,N/A,,Overcast,270,2013-10-24 14:52:00
11:34 AM,39.2,33.8,81,30.05,10.0,West,11.5,-,N/A,,Overcast,260,2013-10-24 15:34:00
11:52 AM,39.9,33.1,77,30.07,10.0,West,12.7,-,N/A,,Overcast,270,2013-10-24 15:52:00
12:48 PM,42.8,33.8,70,30.06,10.0,WSW,11.5,-,N/A,,Overcast,250,2013-10-24 16:48:00
12:52 PM,42.1,32.0,67,30.08,10.0,West,11.5,-,N/A,,Overcast,260,2013-10-24 16:52:00
1:08 PM,42.8,30.2,61,30.06,10.0,WNW,10.4,-,N/A,,Overcast,290,2013-10-24 17:08:00
1:52 PM,43.0,30.9,62,30.07,10.0,West,13.8,-,N/A,,Overcast,280,2013-10-24 17:52:00
2:52 PM,44.1,30.0,58,30.07,10.0,West,10.4,-,0.00,,Overcast,260,2013-10-24 18:52:00
3:52 PM,46.0,28.9,51,30.08,10.0,West,15.0,18.4,N/A,,Overcast,260,2013-10-24 19:52:00
4:52 PM,42.1,30.0,62,30.11,10.0,NW,12.7,-,N/A,,Overcast,310,2013-10-24 20:52:00
5:52 PM,44.1,27.0,51,30.11,10.0,West,17.3,-,0.00,,Clear,280,2013-10-24 21:52:00
6:52 PM,39.9,28.0,63,30.14,10.0,West,6.9,-,N/A,,Clear,270,2013-10-24 22:52:00
7:52 PM,37.9,28.9,70,30.16,10.0,West,6.9,-,N/A,,Scattered Clouds,260,2013-10-24 23:52:00
8:52 PM,37.0,30.9,79,30.18,10.0,West,10.4,-,N/A,,Scattered Clouds,270,2013-10-25 00:52:00
9:52 PM,36.0,30.9,82,30.19,10.0,West,10.4,-,N/A,,Scattered Clouds,280,2013-10-25 01:52:00
10:52 PM,34.0,30.9,89,30.21,10.0,West,8.1,-,N/A,,Clear,260,2013-10-25 02:52:00
11:52 PM,33.1,30.9,92,30.22,10.0,West,10.4,-,N/A,,Clear,270,2013-10-25 03:52:00